Location: City of Clear Lake
(43.1347°N, 93.3740°W)
Time: 10:57:35
(UTC+00:00)

BlueWalker 3 - Pass Details

Date: 19 October 2024
Orbit: 470 x 482 km, 53.2° (Epoch: 05 November)

Event Time Altitude Azimuth Distance (km) Brightness Sun altitude
Exits shadow 11:14:47 16° 322° (NW) 1,291 3.7 -14.9°
Maximum altitude 11:17:23 42° 28° (NNE) 683 2.8 -14.4°
Drops below altitude 10° 11:20:53 10° 101° (E) 1,630 5.9 -13.8°
Sets 11:23:07 0° 109° (ESE) 2,506 7.0 -13.4°
